Weather Roundup
Issued by NWS Springfield, MO

Home | Current Version | Previous Version | Text Only | Print | Product List | Glossary On
Versions: 1 2 3 4 5 6 7 8 9 10 11 12 13 14 15 16 17 18 19 20 21 22 23 24 25 26 27 28 29 30 31 32 33 34 35 36 37 38 39 40 41 42 43 44 45 46 47 48 49 50
000
NZUS99 KSGF 021907
HRRSGF

HOURLY WEATHER
NATIONAL WEATHER SERVICE SPRINGFIELD MO
200 PM CDT TUE SEP 02 2014

......SGF CWA......

CITY           SKY/WX    TMP DP  RH WIND       PRES   REMARKS
SPRINGFIELD    CLOUDY    73  65  75 W8        30.04F
JOPLIN         CLOUDY    74  67  78 SW9       30.04F
WEST PLAINS    CLOUDY    72  65  78 NW12      30.04F
ROLLA          CLOUDY    73  66  78 W7        30.02F
OSAGE BEACH    CLOUDY    77  64  65 W10       30.03F
BRANSON        CLOUDY    68  66  94 NW6       30.06F

......SURROUNDING SGF CWA......

CITY           SKY/WX    TMP DP  RH WIND       PRES   REMARKS
CHANUTE        CLOUDY    80  66  62 SW14      30.03F
PARSONS        CLOUDY    78  65  63 S12       30.03F
COFFEYVILLE    CLOUDY    76  67  73 S6        30.00F
EMPORIA        CLOUDY    78  70  76 S9        30.03S
GROVE OK       CLOUDY    75  68  78 SE3       30.03F
ROGERS AR      CLOUDY    71  65  81 S6        30.05F
SILOAM SPRINGS CLOUDY    72  63  73 S6        30.03F
HARRISON AR    CLOUDY    70  66  87 CALM      30.04R
NEAR YELLVILLE CLOUDY    70  63  78 NW15      30.01F

......KANSAS AND MISSOURI......

CITY           SKY/WX    TMP DP  RH WIND       PRES   REMARKS
KANSAS CTY INT PTSUNNY   79  67  66 VRB5      30.01F
DOWNTOWN KC    MOSUNNY   82  68  62 SW7       30.00F
COLUMBIA       CLOUDY    78  70  76 SW9       30.02F
SEDALIA        CLOUDY    75  70  84 SW12      30.03F
ST JOSEPH      SUNNY     81  62  52 CALM      30.00S
ST LOUIS       CLOUDY    81  69  67 W9G17     30.00R
SPIRIT OF STL  CLOUDY    79  70  73 W8        29.99S
KIRKSVILLE     MOSUNNY   81  64  56 W10       30.00S
WICHITA        MOSUNNY   85  67  54 S16       30.00F
TOPEKA         MOSUNNY   82  72  71 SE9       30.01S
OLATHE         PTSUNNY   77  68  73 S5        30.03R

......TENNESSEE......

CITY           SKY/WX    TMP DP  RH WIND       PRES   REMARKS
MEMPHIS        PTSUNNY   87  73  62 SW8       30.00F HX  94
NASHVILLE      PTSUNNY   91  72  53 SW10G18   29.99F HX  98

......ARKANSAS.......

CITY           SKY/WX    TMP DP  RH WIND       PRES   REMARKS
FAYETTEVILLE   CLOUDY    71  68  90 S13       30.03F
FT SMITH       LGT RAIN  70  68  93 S10       29.96F
LITTLE ROCK    PTSUNNY   84  65  52 N12       30.01F

......OKLAHOMA.......

CITY           SKY/WX    TMP DP  RH WIND       PRES   REMARKS
TULSA          CLOUDY    73  67  81 S7        29.98F
PONCA CITY     MOSUNNY   81  69  67 SE13      29.99F
MCALESTER      CLOUDY    76  67  73 SE9G17    30.03F
OKLAHOMA CITY  PTSUNNY   84  70  62 SE20      29.98F

......IOWA............

CITY           SKY/WX    TMP DP  RH WIND       PRES   REMARKS
DES MOINES     MOSUNNY   79  58  48 VRB3      29.98R
QUAD CITIES    MOSUNNY   81  62  52 W12       29.94S

......ILLINOIS........

CITY           SKY/WX    TMP DP  RH WIND       PRES   REMARKS
QUINCY         MOSUNNY   80  65  59 W6        29.98R
CHICAGO        MOSUNNY   81  56  42 NW8       29.90R




USA.gov is the U.S. government's official web portal to all federal, state and local government web resources and services.